This is the latest recevied weather packets stored in our database for station/object N4BBA. If no packets are shown the sender has not sent any weather packets the latest 1 day(s).
| Time | Temp. | Humidity | Pressure | Rain* | Wind** | Luminosity | Snow |
|---|---|---|---|---|---|---|---|
| 1778027394 | 22.22° C | 59% | 1014.5 hPa | 0 mm | 1.79 m/s, 147° | 0 W/m² | - |
| 1778027090 | 22.22° C | 58% | 1014.3 hPa | 0 mm | 2.68 m/s, 166° | 0 W/m² | - |
| 1778026786 | 22.22° C | 58% | 1014.2 hPa | 0 mm | 2.24 m/s, 185° | 0 W/m² | - |
| 1778026483 | 22.22° C | 57% | 1014.1 hPa | 0 mm | 2.68 m/s, 164° | 1 W/m² | - |
| 1778026180 | 22.78° C | 57% | 1014.1 hPa | 0 mm | 0.89 m/s, 132° | 2 W/m² | - |
| 1778025878 | 22.78° C | 56% | 1014.1 hPa | 0 mm | 1.79 m/s, 173° | 3 W/m² | - |
| 1778025575 | 22.78° C | 56% | 1014 hPa | 0 mm | 1.34 m/s, 223° | 5 W/m² | - |
| 1778025273 | 22.78° C | 55% | 1014 hPa | 0 mm | 3.58 m/s, 137° | 8 W/m² | - |
| 1778024969 | 23.33° C | 55% | 1013.9 hPa | 0 mm | 1.79 m/s, 210° | 11 W/m² | - |
| 1778024667 | 23.33° C | 55% | 1013.8 hPa | 0 mm | 1.79 m/s, 160° | 16 W/m² | - |
| 1778024363 | 23.89° C | 55% | 1013.8 hPa | 0 mm | 2.24 m/s, 180° | 21 W/m² | - |
| 1778024061 | 23.89° C | 54% | 1013.8 hPa | 0 mm | 2.24 m/s, 179° | 26 W/m² | - |
| 1778023758 | 23.89° C | 53% | 1013.7 hPa | 0 mm | 2.24 m/s, 174° | 34 W/m² | - |
| 1778023456 | 23.89° C | 53% | 1013.8 hPa | 0 mm | 3.58 m/s, 176° | 41 W/m² | - |
| 1778023152 | 24.44° C | 52% | 1013.8 hPa | 0 mm | 2.68 m/s, 124° | 48 W/m² | - |
| 1778022850 | 24.44° C | 52% | 1013.9 hPa | 0 mm | 0.45 m/s, 136° | 55 W/m² | - |
| 1778022548 | 25° C | 51% | 1013.7 hPa | 0 mm | 1.34 m/s, 170° | 56 W/m² | - |
| 1778022246 | 25° C | 50% | 1013.5 hPa | 0 mm | 3.58 m/s, 131° | 80 W/m² | - |
| 1778021942 | 25° C | 50% | 1013.7 hPa | 0 mm | 1.79 m/s, 116° | 90 W/m² | - |
| 1778021639 | 25.56° C | 49% | 1013.6 hPa | 0 mm | 3.13 m/s, 198° | 107 W/m² | - |
| 1778021334 | 25.56° C | 49% | 1013.7 hPa | 0 mm | 1.79 m/s, 215° | 135 W/m² | - |
| 1778021032 | 25.56° C | 49% | 1013.8 hPa | 0 mm | 2.68 m/s, 146° | 162 W/m² | - |
| 1778020729 | 25.56° C | 49% | 1013.8 hPa | 0 mm | 2.68 m/s, 138° | 182 W/m² | - |
| 1778020426 | 25.56° C | 50% | 1014 hPa | 0 mm | 2.24 m/s, 109° | 195 W/m² | - |
| 1778020122 | 25° C | 50% | 1014.2 hPa | 0 mm | 0.89 m/s, 136° | 156 W/m² | - |
* Rain latest hour (hover to see other rain measurements)
** Current wind speed in m/s (hover to see current wind gust speed)